EN

Hourly Weather Dzialy

Today, 27 October, Tuesday

Time Temperature Precipitation Wind Pressure Humidity
00:00 +12°C° 0.1 mm 3 mps 753 mmHg 90%
01:00 +13°C° 0.1 mm 2 mps 753 mmHg 91%
02:00 +12°C° 0 mm 5 mps 751 mmHg 89%
03:00 +12°C° 0 mm 5 mps 751 mmHg 88%
04:00 +12°C° 0 mm 4 mps 751 mmHg 87%
05:00 +12°C° 0 mm 4 mps 752 mmHg 89%
06:00 +11°C° 0 mm 4 mps 752 mmHg 92%
07:00 +10°C° 0 mm 3 mps 753 mmHg 95%
08:00 +11°C° 0 mm 3 mps 753 mmHg 91%
09:00 +12°C° 0 mm 3 mps 753 mmHg 88%
10:00 +13°C° 0 mm 3 mps 754 mmHg 84%
11:00 +13°C° 0 mm 3 mps 754 mmHg 83%
12:00 +13°C° 0 mm 3 mps 754 mmHg 81%
13:00 +13°C° 0 mm 4 mps 755 mmHg 80%
14:00 +13°C° 0.2 mm 4 mps 755 mmHg 83%
15:00 +12°C° 0.2 mm 4 mps 755 mmHg 86%
16:00 +11°C° 0.2 mm 4 mps 755 mmHg 89%
17:00 +11°C° 0.2 mm 4 mps 755 mmHg 88%
18:00 +10°C° 0.2 mm 5 mps 755 mmHg 87%
19:00 +10°C° 0.2 mm 5 mps 755 mmHg 86%
20:00 +10°C° 0.1 mm 5 mps 755 mmHg 85%
21:00 +9°C° 0.1 mm 5 mps 755 mmHg 83%
22:00 +9°C° 0.1 mm 5 mps 755 mmHg 81%
23:00 +11°C° 0.4 mm 4 mps 755 mmHg 94%

Tomorrow, 28 October, Wednesday

Time Temperature Precipitation Wind Pressure Humidity
00:00 +11°C° 0.4 mm 4 mps 755 mmHg 93%
01:00 +11°C° 0.4 mm 3 mps 756 mmHg 93%
02:00 +10°C° 0 mm 3 mps 756 mmHg 93%
03:00 +9°C° 0 mm 3 mps 756 mmHg 94%
04:00 +9°C° 0 mm 3 mps 756 mmHg 94%
05:00 +8°C° 0 mm 3 mps 756 mmHg 94%
06:00 +7°C° 0 mm 4 mps 757 mmHg 93%
07:00 +7°C° 0 mm 4 mps 757 mmHg 93%
08:00 +8°C° 0 mm 4 mps 757 mmHg 86%
09:00 +10°C° 0 mm 4 mps 757 mmHg 80%
10:00 +10°C° 0 mm 5 mps 757 mmHg 74%
11:00 +12°C° 0 mm 5 mps 757 mmHg 71%
12:00 +13°C° 0 mm 5 mps 757 mmHg 68%
13:00 +13°C° 0 mm 5 mps 757 mmHg 66%
14:00 +13°C° 0 mm 5 mps 757 mmHg 71%
15:00 +12°C° 0 mm 5 mps 757 mmHg 75%
16:00 +11°C° 0 mm 4 mps 757 mmHg 80%
17:00 +10°C° 0 mm 5 mps 757 mmHg 81%
18:00 +10°C° 0 mm 5 mps 757 mmHg 82%
19:00 +9°C° 0 mm 6 mps 757 mmHg 84%
20:00 +9°C° 0 mm 5 mps 757 mmHg 83%
21:00 +9°C° 0 mm 5 mps 757 mmHg 81%
22:00 +9°C° 0 mm 5 mps 757 mmHg 80%
23:00 +9°C° 0 mm 5 mps 757 mmHg 81%

Day after tomorrow, 29 October, Thursday

Time Temperature Precipitation Wind Pressure Humidity
00:00 +9°C° 0 mm 5 mps 756 mmHg 83%
01:00 +9°C° 0 mm 5 mps 756 mmHg 84%
02:00 +8°C° 0 mm 5 mps 756 mmHg 84%
03:00 +8°C° 0 mm 5 mps 756 mmHg 85%
04:00 +7°C° 0 mm 5 mps 756 mmHg 86%
05:00 +7°C° 0 mm 5 mps 756 mmHg 85%
06:00 +7°C° 0 mm 6 mps 756 mmHg 83%
07:00 +7°C° 0 mm 6 mps 756 mmHg 82%
08:00 +8°C° 0 mm 6 mps 756 mmHg 79%
09:00 +9°C° 0 mm 6 mps 756 mmHg 76%
10:00 +10°C° 0 mm 6 mps 756 mmHg 73%
11:00 +11°C° 0.1 mm 7 mps 756 mmHg 73%
12:00 +11°C° 0.1 mm 7 mps 756 mmHg 73%
13:00 +11°C° 0.1 mm 7 mps 756 mmHg 72%
14:00 +11°C° 0.1 mm 7 mps 756 mmHg 74%
15:00 +10°C° 0.1 mm 6 mps 757 mmHg 77%
16:00 +9°C° 0.1 mm 5 mps 757 mmHg 79%
17:00 +9°C° 0 mm 5 mps 757 mmHg 80%
18:00 +9°C° 0 mm 5 mps 758 mmHg 82%
19:00 +8°C° 0 mm 5 mps 758 mmHg 83%
20:00 +8°C° 0 mm 5 mps 758 mmHg 84%
21:00 +7°C° 0 mm 5 mps 759 mmHg 85%
22:00 +7°C° 0 mm 5 mps 759 mmHg 86%
23:00 +7°C° 0 mm 6 mps 759 mmHg 86%

30 October, Friday

Time Temperature Precipitation Wind Pressure Humidity
00:00 +7°C° 0 mm 6 mps 759 mmHg 86%
01:00 +7°C° 0 mm 6 mps 759 mmHg 86%
02:00 +7°C° 0 mm 6 mps 759 mmHg 85%
03:00 +6°C° 0 mm 7 mps 759 mmHg 84%
04:00 +6°C° 0 mm 7 mps 758 mmHg 83%
05:00 +8°C° 0.1 mm 7 mps 758 mmHg 82%
06:00 +7°C° 0.1 mm 8 mps 758 mmHg 81%
07:00 +8°C° 0.1 mm 9 mps 758 mmHg 79%
08:00 +8°C° 0.1 mm 9 mps 758 mmHg 81%
09:00 +8°C° 0.1 mm 9 mps 758 mmHg 82%
10:00 +10°C° 0.1 mm 9 mps 758 mmHg 83%
11:00 +10°C° 0.1 mm 8 mps 758 mmHg 84%
12:00 +11°C° 0.1 mm 8 mps 758 mmHg 85%
13:00 +11°C° 0.1 mm 7 mps 758 mmHg 85%
14:00 +11°C° 0.2 mm 7 mps 759 mmHg 85%
15:00 +11°C° 0.2 mm 7 mps 759 mmHg 85%
16:00 +12°C° 0.2 mm 7 mps 759 mmHg 85%
17:00 +12°C° 0.1 mm 7 mps 759 mmHg 85%
18:00 +12°C° 0.1 mm 7 mps 759 mmHg 84%
19:00 +12°C° 0.1 mm 7 mps 759 mmHg 83%
20:00 +12°C° 0 mm 7 mps 759 mmHg 83%
21:00 +13°C° 0 mm 6 mps 759 mmHg 82%
22:00 +13°C° 0 mm 6 mps 760 mmHg 82%
23:00 +11°C° 0 mm 6 mps 760 mmHg 84%

31 October, Saturday

Time Temperature Precipitation Wind Pressure Humidity
00:00 +11°C° 0 mm 6 mps 760 mmHg 85%
01:00 +11°C° 0 mm 6 mps 760 mmHg 86%
02:00 +10°C° 0 mm 5 mps 760 mmHg 88%
03:00 +10°C° 0 mm 5 mps 760 mmHg 89%
04:00 +9°C° 0 mm 5 mps 760 mmHg 90%
05:00 +9°C° 0 mm 5 mps 760 mmHg 91%
06:00 +9°C° 0 mm 5 mps 761 mmHg 92%
07:00 +8°C° 0 mm 5 mps 761 mmHg 93%

1 November, Sunday

Time Temperature Precipitation Wind Pressure Humidity
Show more